SCP
0 0 0 0 0 0 0 0 0 0 0 0 0 0 0 0 0 0 0 0 0 0 0 0 0 0 0 0 0 0 0 0
0 0 0 0 0 0 0 0 0 0 0 0 0 0 0 0 0 0 0 0 0 0 0 0 0 0 0 0 0 0 0 0
0 0 0 0 0 0 0 0 0 0 0 0 0 0 0 0 0 0 0 0 0 0 0 0 0 0 0 0 0 0 0 0
0 0 0 0 0 0 0 0 0 0 0 0 0 0 0 0 0 0 0 0 0 0 0 0 0 0 0 0 0 0 0 0
0 0 0 0 0 0 0 0 0 0 0 0 0 0 0 0 0 0 0 0 0 0 0 0 0 0 0 0 0 0 0 0
0 0 0 0 0 0 0 0 0 0 0 0 0 0 0 0 0 0 0 0 0 0 0 0 0 0 0 0 0 0 0 0
0 0 0 0 0 0 0 0 0 0 0 0 0 0 0 0 0 0 0 0 0 0 0 0 0 0 0 0 0 0 0 0
0 0 0 0 0 0 0 0 0 0 0 0 0 0 0 0 0 0 0 0 0 0 0 0 0 0 0 0 0 0 0 0
0 0 0 0 0 0 0 0 0 0 0 0 0 0 0 0 0 0 0 0 0 0 0 0 0 0 0 0 0 0 0 0
0 0 0 0 0 0 0 0 0 0 0 0 0 0 0 0 0 0 0 0 0 0 0 0 0 0 0 0 0 0 0 0
0 0 0 0 0 0 0 0 0 0 0 0 0 0 0 0 0 0 0 0 0 0 0 0 0 0 0 0 0 0 0 0
0 0 0 0 0 0 0 0 0 0 0 0 0 0 0 0 0 0 0 0 0 0 0 0 0 0 0 0 0 0 0 0
0 0 0 0 0 0 0 0 0 0 0 0 0 0 0 0 0 0 0 0 0 0 0 0 0 0 0 0 0 0 0 0
0 0 0 0 0 0 0 0 0 0 0 0 0 0 0 0 0 0 0 0 0 0 0 0 0 0 0 0 0 0 0 0
-0 0 0 0 0 0 0 0 0 0 0 0 0 0 0 0 0 0 0 0 0 0 0 0 0 0 0 0 0 0 0 0
-0 -0 -0 -0 0 0 0 0 0 0 0 0 0 0 0 0 0 0 0 0 0 0 0 0 0 0 0 0 0 0 0 0
-0 -0 -0 -0 -0 0 0 0 0 0 0 0 0 0 0 0 0 0 0 0 0 0 0 0 0 0 0 0 0 0 0 0
-0 -0 -0 -0 0 0 0 0 0 0 0 0 0 0 0 0 0 0 0 0 0 0 0 0 0 0 0 0 0 0 0 0
-0 -0 -0 0 0 0 0 0 0 0 0 0 0 0 0 0 0 0 0 0 0 0 0 0 0 0 0 0 0 0 0 0
-0 -0 0 0 0 0 0 0 0 0 0 0 0 0 0 0 0 0 0 0 0 0 0 0 0 0 0 0 0 0 0 0
Wind_Speed_500mb
8 10 21 25 30 37 42 52 54 58 66 73 78 82 83 76 88 94 98 97 95 95 99 103 100 93 87 81 76 71 65 61
13 15 22 25 28 33 40 47 51 56 59 62 68 73 78 82 88 93 88 91 87 82 89 98 99 93 89 82 76 72 67 63
22 17 15 14 17 23 31 39 47 54 55 58 61 65 72 79 84 89 86 84 79 78 83 91 94 92 90 85 80 76 70 65
26 26 25 22 15 12 15 23 32 43 51 52 52 57 62 67 72 76 77 76 75 81 86 91 92 94 92 85 80 74 67 61
30 28 28 28 27 20 11 9 16 25 37 41 43 48 53 56 60 63 68 72 74 77 83 86 88 92 92 86 79 71 65 59
33 29 28 26 27 27 25 15 5 9 18 28 33 37 41 48 53 57 63 68 72 72 81 84 88 94 93 87 80 72 65 60
36 31 28 26 25 25 24 22 19 8 4 13 21 27 33 39 46 52 59 65 70 75 76 81 84 89 87 80 73 66 59 56
37 30 29 26 25 24 24 22 20 15 10 4 11 19 25 32 40 47 53 57 63 68 74 75 78 80 79 75 71 67 64 59
35 30 27 24 21 21 19 18 16 16 13 8 4 5 16 26 34 41 46 51 58 62 64 67 73 77 75 71 65 61 56 50
36 31 27 23 22 20 16 14 11 10 9 8 6 2 6 14 22 30 37 42 47 52 57 60 60 60 60 60 57 50 48 46
33 30 27 26 23 20 19 16 13 10 7 3 1 5 9 13 17 24 28 33 38 43 45 48 51 50 50 51 50 46 47 49
32 32 30 26 23 21 20 18 17 13 10 6 5 9 12 15 20 23 27 29 33 37 40 42 44 48 49 49 49 50 48 48
34 33 30 26 23 22 21 18 16 15 12 9 7 6 10 14 17 22 25 29 33 36 39 41 43 45 47 47 46 45 43 43
34 33 31 29 25 22 20 19 17 15 13 11 8 7 8 11 16 19 23 26 32 34 35 37 39 41 44 45 46 38 36 36
33 31 30 29 27 26 23 20 17 15 12 9 6 5 5 9 13 16 20 23 26 29 31 31 33 36 39 43 44 38 32 28
35 33 31 29 26 24 21 20 17 15 12 10 7 6 6 8 11 14 16 18 19 21 24 26 27 29 31 33 40 44 43 36
34 33 31 30 29 26 23 19 16 15 14 12 10 9 8 9 9 12 14 16 17 17 19 20 21 22 28 31 30 34 34 34
38 36 35 33 31 29 26 22 18 16 13 13 12 10 10 9 10 11 13 16 15 15 17 19 20 27 31 33 33 31 31 30
49 48 46 42 35 36 30 25 23 21 19 17 14 14 14 13 13 12 13 13 16 20 22 24 24 24 24 25 25 24 24 22
58 53 48 47 40 39 40 33 28 25 25 25 23 21 19 18 16 15 16 16 18 19 22 23 24 27 31 35 34 27 26 25
Wind_Direction_500mb
334 261 244 243 237 233 228 224 225 235 239 240 239 240 237 228 233 236 239 240 239 235 232 230 230 230 229 229 230 231 232 233
315 292 280 266 258 248 243 235 230 226 235 238 237 238 238 235 231 238 240 242 242 238 235 231 230 228 228 229 229 229 230 231
14 352 331 300 268 255 245 242 235 228 228 235 238 238 239 238 235 240 242 245 246 238 233 232 230 228 228 227 227 228 228 230
22 18 17 11 350 305 262 244 236 229 225 230 234 237 238 240 240 241 242 241 241 236 230 226 227 226 225 226 227 228 228 231
20 25 27 27 25 15 345 274 235 227 222 225 231 236 238 240 238 238 238 236 232 235 230 227 225 223 223 223 222 224 227 229
13 19 24 29 33 33 30 14 293 229 230 229 229 231 234 236 236 234 233 234 231 229 230 225 223 220 218 217 218 219 221 224
9 17 18 20 25 29 34 33 28 6 274 245 241 236 232 232 233 233 231 231 227 223 225 225 222 218 218 217 214 215 219 224
7 15 11 14 17 24 28 30 35 36 31 306 242 236 235 234 232 231 229 228 226 224 219 218 217 212 211 210 213 216 218 222
12 16 14 14 15 19 19 24 29 34 38 35 7 243 229 227 227 227 225 221 219 217 215 210 207 208 212 214 214 216 219 224
19 19 16 14 14 13 13 15 16 23 32 54 54 65 184 195 204 209 210 206 204 204 204 206 203 206 208 211 214 217 221 228
20 22 23 22 17 10 11 10 9 6 353 349 200 192 190 190 191 191 192 195 193 193 197 200 202 205 209 211 215 219 223 226
19 20 19 17 17 16 13 11 9 1 349 328 269 238 230 219 208 204 204 203 202 201 202 204 208 211 215 223 222 222 223 225
20 18 16 14 13 11 7 6 359 354 348 339 303 263 237 232 228 221 217 211 211 210 210 211 212 213 214 213 224 223 224 227
17 15 16 15 14 8 4 359 356 353 347 336 317 282 247 235 228 219 215 215 216 216 217 218 216 214 212 212 213 224 222 225
17 13 11 11 9 3 358 354 353 349 340 332 320 302 262 233 221 215 214 215 214 214 214 216 217 214 210 207 198 198 206 216
10 6 3 360 357 353 346 344 341 338 330 324 314 286 255 237 224 219 216 212 214 215 215 211 210 208 205 203 205 206 207 206
359 355 352 352 349 343 335 329 317 321 319 312 302 290 275 258 244 233 222 215 214 212 212 209 206 199 190 187 194 201 205 199
339 334 329 329 330 327 325 317 307 296 296 295 289 279 263 259 262 250 246 241 216 206 205 199 202 192 191 193 196 199 194 194
328 324 316 310 308 307 307 303 295 283 277 272 275 270 262 248 237 239 230 225 215 205 189 178 178 182 179 174 174 179 185 193
322 319 314 307 305 289 287 289 287 282 276 264 261 258 259 258 245 233 223 217 214 208 205 202 196 192 189 189 192 195 202 210
Wind_Speed_850mb
8 10 21 25 30 37 42 52 54 58 66 73 78 82 83 76 88 94 98 97 95 95 99 103 100 93 87 81 76 71 65 61
13 15 22 25 28 33 40 47 51 56 59 62 68 73 78 82 88 93 88 91 87 82 89 98 99 93 89 82 76 72 67 63
22 17 15 14 17 23 31 39 47 54 55 58 61 65 72 79 84 89 86 84 79 78 83 91 94 92 90 85 80 76 70 65
26 26 25 22 15 12 15 23 32 43 51 52 52 57 62 67 72 76 77 76 75 81 86 91 92 94 92 85 80 74 67 61
30 28 28 28 27 20 11 9 16 25 37 41 43 48 53 56 60 63 68 72 74 77 83 86 88 92 92 86 79 71 65 59
33 29 28 26 27 27 25 15 5 9 18 28 33 37 41 48 53 57 63 68 72 72 81 84 88 94 93 87 80 72 65 60
36 31 28 26 25 25 24 22 19 8 4 13 21 27 33 39 46 52 59 65 70 75 76 81 84 89 87 80 73 66 59 56
37 30 29 26 25 24 24 22 20 15 10 4 11 19 25 32 40 47 53 57 63 68 74 75 78 80 79 75 71 67 64 59
35 30 27 24 21 21 19 18 16 16 13 8 4 5 16 26 34 41 46 51 58 62 64 67 73 77 75 71 65 61 56 50
36 31 27 23 22 20 16 14 11 10 9 8 6 2 6 14 22 30 37 42 47 52 57 60 60 60 60 60 57 50 48 46
33 30 27 26 23 20 19 16 13 10 7 3 1 5 9 13 17 24 28 33 38 43 45 48 51 50 50 51 50 46 47 49
32 32 30 26 23 21 20 18 17 13 10 6 5 9 12 15 20 23 27 29 33 37 40 42 44 48 49 49 49 50 48 48
34 33 30 26 23 22 21 18 16 15 12 9 7 6 10 14 17 22 25 29 33 36 39 41 43 45 47 47 46 45 43 43
34 33 31 29 25 22 20 19 17 15 13 11 8 7 8 11 16 19 23 26 32 34 35 37 39 41 44 45 46 38 36 36
33 31 30 29 27 26 23 20 17 15 12 9 6 5 5 9 13 16 20 23 26 29 31 31 33 36 39 43 44 38 32 28
35 33 31 29 26 24 21 20 17 15 12 10 7 6 6 8 11 14 16 18 19 21 24 26 27 29 31 33 40 44 43 36
34 33 31 30 29 26 23 19 16 15 14 12 10 9 8 9 9 12 14 16 17 17 19 20 21 22 28 31 30 34 34 34
38 36 35 33 31 29 26 22 18 16 13 13 12 10 10 9 10 11 13 16 15 15 17 19 20 27 31 33 33 31 31 30
49 48 46 42 35 36 30 25 23 21 19 17 14 14 14 13 13 12 13 13 16 20 22 24 24 24 24 25 25 24 24 22
58 53 48 47 40 39 40 33 28 25 25 25 23 21 19 18 16 15 16 16 18 19 22 23 24 27 31 35 34 27 26 25
Wind_Direction_850mb
334 261 244 243 237 233 228 224 225 235 239 240 239 240 237 228 233 236 239 240 239 235 232 230 230 230 229 229 230 231 232 233
315 292 280 266 258 248 243 235 230 226 235 238 237 238 238 235 231 238 240 242 242 238 235 231 230 228 228 229 229 229 230 231
14 352 331 300 268 255 245 242 235 228 228 235 238 238 239 238 235 240 242 245 246 238 233 232 230 228 228 227 227 228 228 230
22 18 17 11 350 305 262 244 236 229 225 230 234 237 238 240 240 241 242 241 241 236 230 226 227 226 225 226 227 228 228 231
20 25 27 27 25 15 345 274 235 227 222 225 231 236 238 240 238 238 238 236 232 235 230 227 225 223 223 223 222 224 227 229
13 19 24 29 33 33 30 14 293 229 230 229 229 231 234 236 236 234 233 234 231 229 230 225 223 220 218 217 218 219 221 224
9 17 18 20 25 29 34 33 28 6 274 245 241 236 232 232 233 233 231 231 227 223 225 225 222 218 218 217 214 215 219 224
7 15 11 14 17 24 28 30 35 36 31 306 242 236 235 234 232 231 229 228 226 224 219 218 217 212 211 210 213 216 218 222
12 16 14 14 15 19 19 24 29 34 38 35 7 243 229 227 227 227 225 221 219 217 215 210 207 208 212 214 214 216 219 224
19 19 16 14 14 13 13 15 16 23 32 54 54 65 184 195 204 209 210 206 204 204 204 206 203 206 208 211 214 217 221 228
20 22 23 22 17 10 11 10 9 6 353 349 200 192 190 190 191 191 192 195 193 193 197 200 202 205 209 211 215 219 223 226
19 20 19 17 17 16 13 11 9 1 349 328 269 238 230 219 208 204 204 203 202 201 202 204 208 211 215 223 222 222 223 225
20 18 16 14 13 11 7 6 359 354 348 339 303 263 237 232 228 221 217 211 211 210 210 211 212 213 214 213 224 223 224 227
17 15 16 15 14 8 4 359 356 353 347 336 317 282 247 235 228 219 215 215 216 216 217 218 216 214 212 212 213 224 222 225
17 13 11 11 9 3 358 354 353 349 340 332 320 302 262 233 221 215 214 215 214 214 214 216 217 214 210 207 198 198 206 216
10 6 3 360 357 353 346 344 341 338 330 324 314 286 255 237 224 219 216 212 214 215 215 211 210 208 205 203 205 206 207 206
359 355 352 352 349 343 335 329 317 321 319 312 302 290 275 258 244 233 222 215 214 212 212 209 206 199 190 187 194 201 205 199
339 334 329 329 330 327 325 317 307 296 296 295 289 279 263 259 262 250 246 241 216 206 205 199 202 192 191 193 196 199 194 194
328 324 316 310 308 307 307 303 295 283 277 272 275 270 262 248 237 239 230 225 215 205 189 178 178 182 179 174 174 179 185 193
322 319 314 307 305 289 287 289 287 282 276 264 261 258 259 258 245 233 223 217 214 208 205 202 196 192 189 189 192 195 202 210